MTN7109 TAPA-TJSJ

Flight info

Callsign MTN7109
Flight time 1h 45m
Altitude 6000
Route ANU G633 GABAR DCT COY RTE4 VEDAS DCT SJU
Aircraft C208/L-SDF/C

Departure

Time 2026-04-30 00:31
Airport V. C. Bird International Airport (TAPA)

Arrival

Time 2026-04-30 02:16
Airport Luis Munoz Marin International Airport (TJSJ)
Time Latitude Longitude Altitude Speed Heading
2026-04-30 00:04 17.14173 -61.78831 40 ft 0 kts 269°
2026-04-30 00:25 17.14173 -61.78839 40 ft 0 kts 270°
2026-04-30 00:25 17.14159 -61.78854 40 ft 9 kts 196°
2026-04-30 00:26 17.14074 -61.78918 41 ft 21 kts 234°
2026-04-30 00:26 17.13994 -61.79053 43 ft 24 kts 238°
2026-04-30 00:26 17.13883 -61.79150 45 ft 17 kts 222°
2026-04-30 00:26 17.13812 -61.79273 48 ft 22 kts 237°
2026-04-30 00:27 17.13721 -61.79404 50 ft 24 kts 238°
2026-04-30 00:27 17.13627 -61.79562 52 ft 27 kts 238°
2026-04-30 00:27 17.13529 -61.79722 54 ft 24 kts 239°
2026-04-30 00:27 17.13398 -61.79838 57 ft 27 kts 202°
2026-04-30 00:28 17.13263 -61.79973 55 ft 29 kts 242°
2026-04-30 00:28 17.13153 -61.80156 61 ft 31 kts 238°
2026-04-30 00:28 17.13073 -61.80310 67 ft 7 kts 236°
2026-04-30 00:28 17.13066 -61.80288 64 ft 10 kts 63°
2026-04-30 00:29 17.13089 -61.80249 65 ft 0 kts 59°
2026-04-30 00:29 17.13113 -61.80208 62 ft 26 kts 57°
2026-04-30 00:29 17.13287 -61.79912 55 ft 68 kts 57°
2026-04-30 00:30 17.13597 -61.79398 93 ft 93 kts 58°
2026-04-30 00:30 17.13981 -61.78815 195 ft 103 kts 56°
2026-04-30 00:30 17.14431 -61.78131 238 ft 122 kts 58°
2026-04-30 00:30 17.14938 -61.77387 394 ft 127 kts 50°
2026-04-30 00:31 17.15576 -61.76763 669 ft 123 kts 44°
2026-04-30 00:31 17.16205 -61.76163 900 ft 120 kts 45°
2026-04-30 00:31 17.16827 -61.75595 1143 ft 120 kts 41°
2026-04-30 00:31 17.17503 -61.75063 1307 ft 124 kts 39°
2026-04-30 00:32 17.18218 -61.74567 1593 ft 120 kts 34°
2026-04-30 00:32 17.19054 -61.74420 1739 ft 132 kts 347°
2026-04-30 00:32 17.19801 -61.75006 1874 ft 141 kts 306°
2026-04-30 00:32 17.20144 -61.75954 2019 ft 145 kts 270°
2026-04-30 00:33 17.19943 -61.77010 2100 ft 152 kts 248°
2026-04-30 00:33 17.19525 -61.78072 2141 ft 160 kts 245°
2026-04-30 00:33 17.19107 -61.79125 2276 ft 160 kts 246°
2026-04-30 00:33 17.18731 -61.80208 2481 ft 155 kts 252°
2026-04-30 00:34 17.18458 -61.81279 2711 ft 150 kts 253°
2026-04-30 00:34 17.18188 -61.82323 2919 ft 148 kts 252°
2026-04-30 00:34 17.17919 -61.83364 3116 ft 149 kts 252°
2026-04-30 00:34 17.17651 -61.84406 3319 ft 148 kts 252°
2026-04-30 00:35 17.17384 -61.85450 3511 ft 149 kts 252°
2026-04-30 00:35 17.17122 -61.86479 3743 ft 144 kts 252°
2026-04-30 00:35 17.16868 -61.87479 3976 ft 140 kts 252°
2026-04-30 00:35 17.16619 -61.88447 4207 ft 136 kts 252°
2026-04-30 00:36 17.16381 -61.89383 4440 ft 130 kts 252°
2026-04-30 00:36 17.16149 -61.90287 4667 ft 127 kts 252°
2026-04-30 00:36 17.15926 -61.91169 4887 ft 124 kts 252°
2026-04-30 00:36 17.15710 -61.92024 5108 ft 120 kts 252°
2026-04-30 00:37 17.15494 -61.92879 5261 ft 123 kts 251°
2026-04-30 00:37 17.15278 -61.93749 5436 ft 124 kts 252°
2026-04-30 00:37 17.15053 -61.94626 5606 ft 126 kts 252°
2026-04-30 00:37 17.14833 -61.95514 5780 ft 127 kts 257°
2026-04-30 00:38 17.14976 -61.96424 5953 ft 129 kts 288°
2026-04-30 00:38 17.15228 -61.97354 6016 ft 140 kts 283°
2026-04-30 00:38 17.15460 -61.98392 6018 ft 153 kts 282°
2026-04-30 00:38 17.15696 -61.99511 6017 ft 162 kts 281°
2026-04-30 00:39 17.15932 -62.00690 6014 ft 169 kts 281°
2026-04-30 00:39 17.16171 -62.01904 6015 ft 172 kts 281°
2026-04-30 00:39 17.16413 -62.03127 6012 ft 175 kts 281°
2026-04-30 00:39 17.16662 -62.04383 6011 ft 177 kts 281°
2026-04-30 00:40 17.16909 -62.05629 6012 ft 174 kts 281°
2026-04-30 00:40 17.17152 -62.06861 6006 ft 172 kts 281°
2026-04-30 00:40 17.17392 -62.08080 6003 ft 171 kts 281°
2026-04-30 00:40 17.17631 -62.09294 5998 ft 170 kts 281°
2026-04-30 00:41 17.17871 -62.10509 5995 ft 171 kts 281°
2026-04-30 00:41 17.18113 -62.11724 5996 ft 170 kts 281°
2026-04-30 00:41 17.18351 -62.12934 5988 ft 169 kts 281°
2026-04-30 00:41 17.18588 -62.14134 5988 ft 169 kts 282°
2026-04-30 00:42 17.18825 -62.15335 5988 ft 168 kts 281°
2026-04-30 00:42 17.19060 -62.16534 5983 ft 168 kts 282°
2026-04-30 00:42 17.19298 -62.17739 5990 ft 170 kts 281°
2026-04-30 00:42 17.19538 -62.18958 5993 ft 172 kts 281°
2026-04-30 00:43 17.19778 -62.20182 5993 ft 172 kts 282°
2026-04-30 00:43 17.20022 -62.21415 5997 ft 174 kts 281°
2026-04-30 00:43 17.20266 -62.22654 5998 ft 174 kts 282°
2026-04-30 00:43 17.20509 -62.23889 5995 ft 173 kts 281°
2026-04-30 00:44 17.20750 -62.25119 5995 ft 173 kts 281°
2026-04-30 00:44 17.20991 -62.26347 5997 ft 172 kts 281°
2026-04-30 00:44 17.21235 -62.27577 5997 ft 173 kts 281°
2026-04-30 00:44 17.21476 -62.28807 5995 ft 172 kts 281°
2026-04-30 00:45 17.21716 -62.30030 5995 ft 172 kts 281°
2026-04-30 00:45 17.21956 -62.31257 5995 ft 172 kts 281°
2026-04-30 00:45 17.22197 -62.32483 5999 ft 172 kts 281°
2026-04-30 00:45 17.22437 -62.33706 5994 ft 171 kts 281°
2026-04-30 00:46 17.22676 -62.34928 5995 ft 171 kts 281°
2026-04-30 00:46 17.22915 -62.36142 5997 ft 170 kts 281°
2026-04-30 00:46 17.23153 -62.37355 5994 ft 171 kts 281°
2026-04-30 00:46 17.23389 -62.38567 5994 ft 170 kts 281°
2026-04-30 00:47 17.23626 -62.39773 5994 ft 170 kts 282°
2026-04-30 00:47 17.23863 -62.40983 5993 ft 170 kts 281°
2026-04-30 00:47 17.24100 -62.42191 5992 ft 170 kts 281°
2026-04-30 00:47 17.24337 -62.43399 5992 ft 170 kts 281°
2026-04-30 00:48 17.24572 -62.44608 5990 ft 169 kts 281°
2026-04-30 00:48 17.24808 -62.45808 5997 ft 169 kts 282°
2026-04-30 00:48 17.25043 -62.47012 5994 ft 169 kts 281°
2026-04-30 00:48 17.25277 -62.48216 5991 ft 169 kts 282°
2026-04-30 00:49 17.25513 -62.49419 5993 ft 169 kts 282°
2026-04-30 00:49 17.25747 -62.50620 5995 ft 169 kts 281°
2026-04-30 00:49 17.25982 -62.51823 6000 ft 169 kts 281°
2026-04-30 00:49 17.26218 -62.53030 5999 ft 170 kts 281°
2026-04-30 00:50 17.26455 -62.54245 6002 ft 170 kts 281°
2026-04-30 00:50 17.26691 -62.55456 6001 ft 170 kts 282°
2026-04-30 00:50 17.26928 -62.56672 6000 ft 171 kts 281°
2026-04-30 00:50 17.27165 -62.57888 5999 ft 171 kts 282°
2026-04-30 00:51 17.27403 -62.59105 6001 ft 171 kts 281°
2026-04-30 00:51 17.27639 -62.60321 5999 ft 170 kts 281°
2026-04-30 00:51 17.27877 -62.61538 6002 ft 171 kts 281°
2026-04-30 00:51 17.28106 -62.62759 6001 ft 171 kts 281°
2026-04-30 00:52 17.28351 -62.63972 5999 ft 170 kts 282°
2026-04-30 00:52 17.28590 -62.65186 5998 ft 170 kts 281°
2026-04-30 00:52 17.28823 -62.66399 5999 ft 170 kts 281°
2026-04-30 00:52 17.29058 -62.67613 5998 ft 170 kts 281°
2026-04-30 00:53 17.29293 -62.68823 6002 ft 170 kts 282°
2026-04-30 00:53 17.29528 -62.70035 5994 ft 170 kts 281°
2026-04-30 00:53 17.29763 -62.71238 5995 ft 169 kts 282°
2026-04-30 00:53 17.29996 -62.72442 5995 ft 169 kts 281°
2026-04-30 00:54 17.30229 -62.73647 5998 ft 169 kts 282°
2026-04-30 00:54 17.30464 -62.74855 5999 ft 170 kts 281°
2026-04-30 00:54 17.30699 -62.76071 5997 ft 171 kts 282°
2026-04-30 00:54 17.30936 -62.77288 6001 ft 170 kts 282°
2026-04-30 00:55 17.31172 -62.78506 5999 ft 171 kts 281°
2026-04-30 00:55 17.31406 -62.79725 5999 ft 171 kts 282°
2026-04-30 00:55 17.31878 -62.82160 5999 ft 171 kts 282°
2026-04-30 00:56 17.32115 -62.83377 5997 ft 171 kts 282°
2026-04-30 00:56 17.32351 -62.84598 5996 ft 171 kts 281°
2026-04-30 00:56 17.32587 -62.85819 5994 ft 171 kts 281°
2026-04-30 00:56 17.32823 -62.87041 5996 ft 171 kts 281°
2026-04-30 00:57 17.33059 -62.88264 5992 ft 171 kts 281°
2026-04-30 00:57 17.33292 -62.89469 5990 ft 171 kts 281°
2026-04-30 00:57 17.33527 -62.90684 5990 ft 171 kts 281°
2026-04-30 00:57 17.33761 -62.91899 5987 ft 170 kts 281°
2026-04-30 00:58 17.33995 -62.93107 5990 ft 170 kts 281°
2026-04-30 00:58 17.34228 -62.94318 5990 ft 169 kts 281°
2026-04-30 00:58 17.34461 -62.95521 5991 ft 169 kts 281°
2026-04-30 00:58 17.34692 -62.96726 5994 ft 169 kts 282°
2026-04-30 00:59 17.34925 -62.97930 5992 ft 169 kts 281°
2026-04-30 00:59 17.35157 -62.99137 5994 ft 169 kts 281°
2026-04-30 00:59 17.35404 -63.00341 5993 ft 169 kts 285°
2026-04-30 00:59 17.35689 -63.01531 5992 ft 169 kts 283°
2026-04-30 01:00 17.35951 -63.02730 5995 ft 169 kts 283°
2026-04-30 01:00 17.36222 -63.03930 5994 ft 169 kts 284°
2026-04-30 01:00 17.36496 -63.05129 5994 ft 170 kts 284°
2026-04-30 01:00 17.36772 -63.06333 5994 ft 170 kts 284°
2026-04-30 01:01 17.37047 -63.07539 5997 ft 170 kts 284°
2026-04-30 01:01 17.37323 -63.08745 5998 ft 171 kts 283°
2026-04-30 01:01 17.37600 -63.09959 5990 ft 172 kts 284°
2026-04-30 01:01 17.37876 -63.11173 5987 ft 171 kts 284°
2026-04-30 01:02 17.38154 -63.12385 5992 ft 172 kts 284°
2026-04-30 01:02 17.38430 -63.13601 5990 ft 171 kts 284°
2026-04-30 01:02 17.38708 -63.14814 5994 ft 171 kts 284°
2026-04-30 01:02 17.38984 -63.16029 5994 ft 171 kts 284°
2026-04-30 01:03 17.39260 -63.17239 5992 ft 171 kts 284°
2026-04-30 01:03 17.39536 -63.18451 5997 ft 172 kts 283°
2026-04-30 01:03 17.39813 -63.19670 5991 ft 172 kts 283°
2026-04-30 01:03 17.40089 -63.20882 5990 ft 171 kts 283°
2026-04-30 01:04 17.40364 -63.22093 5990 ft 171 kts 284°
2026-04-30 01:04 17.40641 -63.23303 5990 ft 171 kts 283°
2026-04-30 01:04 17.40916 -63.24515 5989 ft 171 kts 284°
2026-04-30 01:04 17.41189 -63.25718 5988 ft 170 kts 284°
2026-04-30 01:05 17.41463 -63.26920 5985 ft 170 kts 283°
2026-04-30 01:05 17.41732 -63.28105 5987 ft 170 kts 284°
2026-04-30 01:05 17.42006 -63.29306 5982 ft 170 kts 284°
2026-04-30 01:05 17.42279 -63.30508 5980 ft 170 kts 283°
2026-04-30 01:06 17.42551 -63.31709 5982 ft 170 kts 283°
2026-04-30 01:06 17.42823 -63.32908 5977 ft 170 kts 283°
2026-04-30 01:06 17.43095 -63.34105 5981 ft 169 kts 284°
2026-04-30 01:06 17.43368 -63.35307 5982 ft 169 kts 283°
2026-04-30 01:07 17.43640 -63.36508 5979 ft 169 kts 284°
2026-04-30 01:07 17.43911 -63.37703 5979 ft 168 kts 284°
2026-04-30 01:07 17.44182 -63.38897 5977 ft 169 kts 283°
2026-04-30 01:07 17.44454 -63.40101 5979 ft 169 kts 283°
2026-04-30 01:08 17.44636 -63.40910 5979 ft 169 kts 284°
2026-04-30 01:08 17.44909 -63.42108 5982 ft 169 kts 284°
2026-04-30 01:08 17.45182 -63.43310 5982 ft 170 kts 283°
2026-04-30 01:08 17.45543 -63.44908 5982 ft 170 kts 283°
2026-04-30 01:09 17.45727 -63.45722 5981 ft 170 kts 283°
2026-04-30 01:09 17.46000 -63.46928 5986 ft 170 kts 283°
2026-04-30 01:09 17.46272 -63.48134 5984 ft 170 kts 284°
2026-04-30 01:09 17.46545 -63.49338 5987 ft 169 kts 284°
2026-04-30 01:10 17.46817 -63.50539 5985 ft 169 kts 283°
2026-04-30 01:10 17.47089 -63.51743 5979 ft 170 kts 283°
2026-04-30 01:10 17.47361 -63.52951 5978 ft 170 kts 283°
2026-04-30 01:10 17.47633 -63.54154 5980 ft 170 kts 283°
2026-04-30 01:11 17.47906 -63.55362 5980 ft 170 kts 283°
2026-04-30 01:11 17.48178 -63.56566 5978 ft 170 kts 284°
2026-04-30 01:11 17.48451 -63.57773 5980 ft 170 kts 284°
2026-04-30 01:11 17.48721 -63.58979 5980 ft 170 kts 283°
2026-04-30 01:12 17.48993 -63.60186 5978 ft 170 kts 283°
2026-04-30 01:12 17.49265 -63.61386 5976 ft 169 kts 284°
2026-04-30 01:12 17.49535 -63.62583 5976 ft 169 kts 283°
2026-04-30 01:12 17.49805 -63.63781 5975 ft 169 kts 283°
2026-04-30 01:13 17.50074 -63.64979 5976 ft 169 kts 283°
2026-04-30 01:13 17.50340 -63.66162 5976 ft 169 kts 283°
2026-04-30 01:13 17.50673 -63.67338 5975 ft 169 kts 288°
2026-04-30 01:13 17.51022 -63.68509 5977 ft 169 kts 287°
2026-04-30 01:14 17.51364 -63.69687 5977 ft 169 kts 287°
2026-04-30 01:14 17.51710 -63.70865 5977 ft 169 kts 288°
2026-04-30 01:14 17.52060 -63.72044 5974 ft 170 kts 288°
2026-04-30 01:14 17.52410 -63.73223 5977 ft 170 kts 287°
2026-04-30 01:15 17.52761 -63.74407 5979 ft 170 kts 288°
2026-04-30 01:15 17.53110 -63.75592 5979 ft 170 kts 287°
2026-04-30 01:15 17.53460 -63.76775 5981 ft 170 kts 288°
2026-04-30 01:15 17.53809 -63.77958 5980 ft 170 kts 287°
2026-04-30 01:16 17.54156 -63.79134 5977 ft 168 kts 288°
2026-04-30 01:16 17.54504 -63.80304 5976 ft 169 kts 287°
2026-04-30 01:16 17.54850 -63.81477 5974 ft 168 kts 288°
2026-04-30 01:16 17.55196 -63.82649 5978 ft 168 kts 288°
2026-04-30 01:17 17.55541 -63.83820 5978 ft 168 kts 287°
2026-04-30 01:17 17.55889 -63.84995 5978 ft 169 kts 288°
2026-04-30 01:17 17.56235 -63.86170 5978 ft 169 kts 287°
2026-04-30 01:17 17.56582 -63.87346 5977 ft 169 kts 287°
2026-04-30 01:18 17.56930 -63.88520 5978 ft 169 kts 287°
2026-04-30 01:18 17.57277 -63.89698 5980 ft 170 kts 287°
2026-04-30 01:18 17.57625 -63.90881 5982 ft 170 kts 288°
2026-04-30 01:18 17.57973 -63.92063 5981 ft 170 kts 287°
2026-04-30 01:19 17.58320 -63.93238 5982 ft 169 kts 287°
2026-04-30 01:19 17.58666 -63.94416 5979 ft 168 kts 287°
2026-04-30 01:19 17.59010 -63.95585 5981 ft 168 kts 288°
2026-04-30 01:19 17.59356 -63.96757 5983 ft 169 kts 288°
2026-04-30 01:20 17.59704 -63.97936 5982 ft 170 kts 287°
2026-04-30 01:20 17.60050 -63.99118 5984 ft 169 kts 288°
2026-04-30 01:20 17.60399 -64.00300 5986 ft 170 kts 287°
2026-04-30 01:20 17.60747 -64.01481 5987 ft 170 kts 287°
2026-04-30 01:21 17.61096 -64.02663 5986 ft 170 kts 287°
2026-04-30 01:21 17.61444 -64.03855 5988 ft 171 kts 287°
2026-04-30 01:21 17.61796 -64.05050 5987 ft 172 kts 288°
2026-04-30 01:21 17.62149 -64.06245 5990 ft 172 kts 288°
2026-04-30 01:22 17.62502 -64.07448 5990 ft 173 kts 287°
2026-04-30 01:22 17.62854 -64.08652 5989 ft 172 kts 287°
2026-04-30 01:22 17.63207 -64.09853 5989 ft 172 kts 287°
2026-04-30 01:22 17.63559 -64.11053 5990 ft 172 kts 287°
2026-04-30 01:23 17.63911 -64.12249 5988 ft 172 kts 288°
2026-04-30 01:23 17.64262 -64.13444 5987 ft 171 kts 287°
2026-04-30 01:23 17.64611 -64.14634 5988 ft 171 kts 288°
2026-04-30 01:23 17.64961 -64.15823 5986 ft 170 kts 288°
2026-04-30 01:24 17.65308 -64.17010 5986 ft 171 kts 288°
2026-04-30 01:24 17.65656 -64.18200 5983 ft 171 kts 288°
2026-04-30 01:24 17.66004 -64.19389 5985 ft 170 kts 288°
2026-04-30 01:24 17.66354 -64.20575 5986 ft 170 kts 288°
2026-04-30 01:25 17.66702 -64.21764 5982 ft 170 kts 288°
2026-04-30 01:25 17.67050 -64.22952 5986 ft 171 kts 288°
2026-04-30 01:25 17.67398 -64.24144 5986 ft 171 kts 287°
2026-04-30 01:25 17.67748 -64.25338 5988 ft 171 kts 287°
2026-04-30 01:26 17.68097 -64.26532 5985 ft 171 kts 288°
2026-04-30 01:26 17.68447 -64.27726 5987 ft 171 kts 287°
2026-04-30 01:26 17.68797 -64.28922 5985 ft 171 kts 288°
2026-04-30 01:26 17.69146 -64.30118 5985 ft 172 kts 288°
2026-04-30 01:27 17.69498 -64.31314 5985 ft 172 kts 288°
2026-04-30 01:27 17.69846 -64.32511 5981 ft 171 kts 287°
2026-04-30 01:27 17.70195 -64.33705 5981 ft 171 kts 287°
2026-04-30 01:27 17.70544 -64.34897 5981 ft 171 kts 288°
2026-04-30 01:28 17.70893 -64.36091 5982 ft 171 kts 287°
2026-04-30 01:28 17.71242 -64.37285 5986 ft 172 kts 288°
2026-04-30 01:28 17.71590 -64.38483 5982 ft 172 kts 288°
2026-04-30 01:28 17.71939 -64.39679 5980 ft 171 kts 288°
2026-04-30 01:29 17.72289 -64.40872 5982 ft 171 kts 288°
2026-04-30 01:29 17.72634 -64.42052 5981 ft 172 kts 288°
2026-04-30 01:29 17.72986 -64.43262 5983 ft 171 kts 288°
2026-04-30 01:29 17.73336 -64.44462 5983 ft 172 kts 288°
2026-04-30 01:30 17.73685 -64.45662 5986 ft 172 kts 288°
2026-04-30 01:30 17.74030 -64.46845 5985 ft 172 kts 288°
2026-04-30 01:30 17.74380 -64.48042 5986 ft 171 kts 288°
2026-04-30 01:30 17.74727 -64.49237 5987 ft 171 kts 288°
2026-04-30 01:31 17.75074 -64.50428 5986 ft 171 kts 287°
2026-04-30 01:31 17.75420 -64.51617 5987 ft 170 kts 288°
2026-04-30 01:31 17.75767 -64.52804 5987 ft 170 kts 288°
2026-04-30 01:31 17.76110 -64.53989 5985 ft 170 kts 288°
2026-04-30 01:32 17.76457 -64.55175 5986 ft 170 kts 288°
2026-04-30 01:32 17.76802 -64.56364 5989 ft 171 kts 288°
2026-04-30 01:32 17.77149 -64.57557 5989 ft 171 kts 288°
2026-04-30 01:32 17.77495 -64.58751 5988 ft 171 kts 288°
2026-04-30 01:33 17.77844 -64.59945 5993 ft 172 kts 288°
2026-04-30 01:33 17.78193 -64.61145 5993 ft 172 kts 288°
2026-04-30 01:33 17.78541 -64.62344 5995 ft 172 kts 288°
2026-04-30 01:33 17.78889 -64.63546 5990 ft 172 kts 288°
2026-04-30 01:34 17.79238 -64.64743 5995 ft 171 kts 288°
2026-04-30 01:34 17.79585 -64.65941 5999 ft 171 kts 288°
2026-04-30 01:34 17.79932 -64.67136 5996 ft 171 kts 288°
2026-04-30 01:34 17.80277 -64.68324 5993 ft 170 kts 288°
2026-04-30 01:35 17.80621 -64.69512 5993 ft 170 kts 288°
2026-04-30 01:35 17.80961 -64.70681 5992 ft 170 kts 288°
2026-04-30 01:35 17.81304 -64.71866 5994 ft 170 kts 288°
2026-04-30 01:35 17.81647 -64.73049 5991 ft 170 kts 288°
2026-04-30 01:36 17.81991 -64.74236 5992 ft 170 kts 288°
2026-04-30 01:36 17.82335 -64.75424 5992 ft 171 kts 288°
2026-04-30 01:36 17.82680 -64.76616 5993 ft 171 kts 288°
2026-04-30 01:36 17.83026 -64.77808 5995 ft 171 kts 288°
2026-04-30 01:37 17.83371 -64.79002 5992 ft 171 kts 288°
2026-04-30 01:37 17.83717 -64.80198 5993 ft 171 kts 288°
2026-04-30 01:37 17.84064 -64.81391 5991 ft 171 kts 288°
2026-04-30 01:37 17.84408 -64.82584 5991 ft 171 kts 288°
2026-04-30 01:38 17.84753 -64.83776 5989 ft 170 kts 288°
2026-04-30 01:38 17.85096 -64.84964 5991 ft 170 kts 288°
2026-04-30 01:38 17.85441 -64.86152 5990 ft 170 kts 288°
2026-04-30 01:38 17.85783 -64.87340 5988 ft 170 kts 288°
2026-04-30 01:39 17.86127 -64.88528 5990 ft 170 kts 288°
2026-04-30 01:39 17.86470 -64.89717 5988 ft 170 kts 288°
2026-04-30 01:39 17.86815 -64.90910 5989 ft 171 kts 288°
2026-04-30 01:39 17.87159 -64.92102 5990 ft 171 kts 288°
2026-04-30 01:40 17.87498 -64.93296 5987 ft 171 kts 287°
2026-04-30 01:40 17.87819 -64.94495 5987 ft 171 kts 286°
2026-04-30 01:40 17.88120 -64.95701 5985 ft 171 kts 285°
2026-04-30 01:40 17.88402 -64.96912 5984 ft 171 kts 284°
2026-04-30 01:41 17.88666 -64.98130 5985 ft 171 kts 283°
2026-04-30 01:41 17.88959 -64.99333 5975 ft 170 kts 296°
2026-04-30 01:41 17.89522 -65.00416 5977 ft 169 kts 295°
2026-04-30 01:41 17.89906 -65.01585 5980 ft 170 kts 288°
2026-04-30 01:42 17.90238 -65.02774 5977 ft 170 kts 288°
2026-04-30 01:42 17.90580 -65.03961 5978 ft 170 kts 288°
2026-04-30 01:42 17.90922 -65.05147 5980 ft 169 kts 288°
2026-04-30 01:42 17.91257 -65.06313 5977 ft 169 kts 288°
2026-04-30 01:43 17.91598 -65.07495 5971 ft 169 kts 288°
2026-04-30 01:43 17.91936 -65.08677 5973 ft 169 kts 288°
2026-04-30 01:43 17.92279 -65.09862 5977 ft 170 kts 287°
2026-04-30 01:43 17.92620 -65.11049 5978 ft 170 kts 288°
2026-04-30 01:44 17.92960 -65.12238 5980 ft 170 kts 288°
2026-04-30 01:44 17.93304 -65.13433 5978 ft 171 kts 288°
2026-04-30 01:44 17.93650 -65.14628 5980 ft 171 kts 288°
2026-04-30 01:44 17.93993 -65.15830 5978 ft 172 kts 287°
2026-04-30 01:45 17.94337 -65.17031 5980 ft 172 kts 288°
2026-04-30 01:45 17.94683 -65.18228 5982 ft 172 kts 287°
2026-04-30 01:45 17.95025 -65.19427 5981 ft 171 kts 288°
2026-04-30 01:45 17.95370 -65.20625 5979 ft 171 kts 288°
2026-04-30 01:46 17.95712 -65.21817 5977 ft 170 kts 288°
2026-04-30 01:46 17.96054 -65.23007 5979 ft 170 kts 288°
2026-04-30 01:46 17.96394 -65.24194 5976 ft 169 kts 288°
2026-04-30 01:46 17.96734 -65.25375 5976 ft 169 kts 288°
2026-04-30 01:47 17.97074 -65.26562 5973 ft 169 kts 288°
2026-04-30 01:47 17.97412 -65.27746 5973 ft 169 kts 287°
2026-04-30 01:47 17.97752 -65.28931 5976 ft 170 kts 287°
2026-04-30 01:47 17.98093 -65.30119 5973 ft 170 kts 288°
2026-04-30 01:48 17.98434 -65.31310 5977 ft 171 kts 288°
2026-04-30 01:48 17.98776 -65.32505 5976 ft 171 kts 287°
2026-04-30 01:48 17.99119 -65.33702 5980 ft 171 kts 288°
2026-04-30 01:48 17.99462 -65.34899 5979 ft 171 kts 288°
2026-04-30 01:49 17.99803 -65.36093 5980 ft 171 kts 287°
2026-04-30 01:49 18.00143 -65.37283 5981 ft 170 kts 288°
2026-04-30 01:49 18.00483 -65.38474 5978 ft 170 kts 287°
2026-04-30 01:49 18.00823 -65.39661 5980 ft 170 kts 288°
2026-04-30 01:50 18.01162 -65.40846 5977 ft 169 kts 287°
2026-04-30 01:50 18.01499 -65.42032 5976 ft 169 kts 287°
2026-04-30 01:50 18.01838 -65.43215 5974 ft 169 kts 288°
2026-04-30 01:50 18.02177 -65.44398 5974 ft 170 kts 287°
2026-04-30 01:51 18.02515 -65.45585 5973 ft 170 kts 288°
2026-04-30 01:51 18.02855 -65.46776 5972 ft 170 kts 287°
2026-04-30 01:51 18.03195 -65.47965 5974 ft 170 kts 287°
2026-04-30 01:51 18.03534 -65.49156 5976 ft 170 kts 287°
2026-04-30 01:52 18.03874 -65.50348 5975 ft 170 kts 287°
2026-04-30 01:52 18.04214 -65.51537 5974 ft 170 kts 287°
2026-04-30 01:52 18.04553 -65.52728 5974 ft 170 kts 287°
2026-04-30 01:52 18.04891 -65.53914 5972 ft 169 kts 288°
2026-04-30 01:53 18.05244 -65.55092 5968 ft 169 kts 293°
2026-04-30 01:53 18.05879 -65.56117 5965 ft 167 kts 308°
2026-04-30 01:53 18.06546 -65.57117 5966 ft 167 kts 305°
2026-04-30 01:53 18.06975 -65.57787 5967 ft 167 kts 305°
2026-04-30 01:54 18.07849 -65.59133 5966 ft 167 kts 306°
2026-04-30 01:54 18.08282 -65.59798 5968 ft 166 kts 306°
2026-04-30 01:54 18.08936 -65.60802 5970 ft 166 kts 305°
2026-04-30 01:54 18.09591 -65.61801 5970 ft 167 kts 306°
2026-04-30 01:55 18.10251 -65.62811 5969 ft 167 kts 306°
2026-04-30 01:55 18.10912 -65.63818 5969 ft 168 kts 306°
2026-04-30 01:55 18.11571 -65.64828 5971 ft 168 kts 306°
2026-04-30 01:55 18.12230 -65.65839 5971 ft 168 kts 306°
2026-04-30 01:56 18.12825 -65.66754 5976 ft 168 kts 305°
2026-04-30 01:56 18.13487 -65.67767 5975 ft 168 kts 306°
2026-04-30 01:56 18.14145 -65.68778 5972 ft 167 kts 306°
2026-04-30 01:56 18.14804 -65.69784 5972 ft 167 kts 306°
2026-04-30 01:57 18.15462 -65.70791 5970 ft 167 kts 305°
2026-04-30 01:57 18.16120 -65.71802 5973 ft 168 kts 305°
2026-04-30 01:57 18.16780 -65.72815 5973 ft 168 kts 305°
2026-04-30 01:57 18.17436 -65.73822 5972 ft 167 kts 306°
2026-04-30 01:58 18.18093 -65.74828 5968 ft 166 kts 305°
2026-04-30 01:58 18.18753 -65.75828 5967 ft 167 kts 308°
2026-04-30 01:58 18.19515 -65.76749 5968 ft 167 kts 313°
2026-04-30 01:58 18.20279 -65.77671 5969 ft 168 kts 312°
2026-04-30 01:59 18.21799 -65.79518 5969 ft 165 kts 312°
2026-04-30 01:59 18.22547 -65.80427 5963 ft 164 kts 312°
2026-04-30 01:59 18.23290 -65.81329 5961 ft 162 kts 311°
2026-04-30 02:00 18.24030 -65.82225 5956 ft 162 kts 312°
2026-04-30 02:00 18.24771 -65.83120 5959 ft 162 kts 312°
2026-04-30 02:00 18.25508 -65.84013 5951 ft 161 kts 312°
2026-04-30 02:00 18.26235 -65.84901 5948 ft 160 kts 312°
2026-04-30 02:01 18.26969 -65.85784 5950 ft 160 kts 311°
2026-04-30 02:01 18.27700 -65.86671 5944 ft 160 kts 311°
2026-04-30 02:01 18.28426 -65.87556 5943 ft 160 kts 312°
2026-04-30 02:01 18.29154 -65.88434 5941 ft 159 kts 311°
2026-04-30 02:02 18.29870 -65.89308 5924 ft 154 kts 312°
2026-04-30 02:02 18.30571 -65.90155 5737 ft 157 kts 312°
2026-04-30 02:02 18.31292 -65.91030 5542 ft 159 kts 311°
2026-04-30 02:02 18.32015 -65.91911 5354 ft 159 kts 311°
2026-04-30 02:03 18.32741 -65.92791 5160 ft 159 kts 311°
2026-04-30 02:03 18.33466 -65.93672 4964 ft 159 kts 311°
2026-04-30 02:03 18.34189 -65.94550 4785 ft 159 kts 311°
2026-04-30 02:03 18.34914 -65.95432 4586 ft 160 kts 312°
2026-04-30 02:04 18.35643 -65.96314 4397 ft 160 kts 311°
2026-04-30 02:04 18.36166 -65.97336 4197 ft 161 kts 282°
2026-04-30 02:04 18.36222 -65.98508 4006 ft 160 kts 268°
2026-04-30 02:04 18.36220 -65.99650 3803 ft 151 kts 270°
2026-04-30 02:05 18.36229 -66.00720 3585 ft 142 kts 270°
2026-04-30 02:05 18.36231 -66.01735 3369 ft 137 kts 269°
2026-04-30 02:05 18.36231 -66.02737 3155 ft 136 kts 269°
2026-04-30 02:05 18.36234 -66.03731 2949 ft 135 kts 269°
2026-04-30 02:06 18.36235 -66.04712 2753 ft 134 kts 269°
2026-04-30 02:06 18.36237 -66.05688 2552 ft 133 kts 269°
2026-04-30 02:06 18.36223 -66.06658 2356 ft 132 kts 268°
2026-04-30 02:06 18.36206 -66.07626 2159 ft 132 kts 268°
2026-04-30 02:07 18.36187 -66.08593 1963 ft 132 kts 268°
2026-04-30 02:07 18.36167 -66.09559 1768 ft 132 kts 268°
2026-04-30 02:07 18.36142 -66.10523 1576 ft 132 kts 268°
2026-04-30 02:07 18.36117 -66.11459 1505 ft 123 kts 268°
2026-04-30 02:08 18.36087 -66.12376 1512 ft 131 kts 267°
2026-04-30 02:08 18.36059 -66.13370 1523 ft 141 kts 268°
2026-04-30 02:08 18.36040 -66.14427 1519 ft 147 kts 274°
2026-04-30 02:08 18.36509 -66.15366 1508 ft 151 kts 324°
2026-04-30 02:09 18.37479 -66.15663 1515 ft 142 kts 358°
2026-04-30 02:09 18.38433 -66.15732 1507 ft 134 kts 356°
2026-04-30 02:09 18.39340 -66.15805 1494 ft 128 kts 357°
2026-04-30 02:09 18.40217 -66.15875 1498 ft 125 kts 357°
2026-04-30 02:10 18.41075 -66.15944 1495 ft 123 kts 357°
2026-04-30 02:10 18.41928 -66.16014 1499 ft 123 kts 356°
2026-04-30 02:10 18.42786 -66.16086 1496 ft 124 kts 357°
2026-04-30 02:10 18.43587 -66.15882 1497 ft 120 kts 45°
2026-04-30 02:11 18.43792 -66.15093 1501 ft 117 kts 108°
2026-04-30 02:11 18.43515 -66.14291 1503 ft 117 kts 97°
2026-04-30 02:11 18.43467 -66.13435 1510 ft 118 kts 95°
2026-04-30 02:11 18.43425 -66.12578 1515 ft 119 kts 91°
2026-04-30 02:12 18.43405 -66.11705 1513 ft 120 kts 90°
2026-04-30 02:12 18.43395 -66.10829 1520 ft 119 kts 90°
2026-04-30 02:12 18.43386 -66.09948 1516 ft 121 kts 90°
2026-04-30 02:12 18.43376 -66.09075 1438 ft 117 kts 90°
2026-04-30 02:13 18.43375 -66.08241 1289 ft 112 kts 90°
2026-04-30 02:13 18.43371 -66.07435 1147 ft 107 kts 90°
2026-04-30 02:13 18.43373 -66.06710 1021 ft 95 kts 89°
2026-04-30 02:13 18.43369 -66.06029 898 ft 91 kts 89°
2026-04-30 02:14 18.43367 -66.05368 781 ft 90 kts 90°
2026-04-30 02:14 18.43368 -66.04714 676 ft 88 kts 89°
2026-04-30 02:14 18.43364 -66.04099 557 ft 81 kts 89°
2026-04-30 02:14 18.43365 -66.03529 453 ft 75 kts 90°
2026-04-30 02:15 18.43368 -66.02961 356 ft 82 kts 89°
2026-04-30 02:15 18.43364 -66.02330 245 ft 90 kts 91°
2026-04-30 02:15 18.43355 -66.01666 120 ft 92 kts 89°
2026-04-30 02:15 18.43354 -66.00992 16 ft 85 kts 90°
2026-04-30 02:16 18.43351 -66.00517 15 ft 40 kts 90°
2026-04-30 02:16 18.43367 -66.00315 15 ft 21 kts 69°
2026-04-30 02:16 18.43421 -66.00203 15 ft 13 kts 62°
2026-04-30 02:16 18.43463 -66.00112 15 ft 17 kts 80°
2026-04-30 02:17 18.43462 -65.99966 15 ft 23 kts 91°
2026-04-30 02:17 18.43532 -65.99915 16 ft 13 kts
2026-04-30 02:17 18.43563 -65.99824 16 ft 9 kts 68°
2026-04-30 02:17 18.43620 -65.99823 16 ft 7 kts 16°
2026-04-30 02:18 18.43623 -65.99797 16 ft 0 kts 86°